Lexington Weather

Lexington, Massachusetts, USA

73°F
8/7/2020 11:29am 
  • Lexington Conditions: Clear
  • Temperature: 72.9°F / 22.7°CWarmer 2.6°F than last hour.
  • Dew Point: 63.7°FIncreased 0.9°Fsince last hour.
  • Relative Humidity: 73%Decreased 4.0% since last hour.
  • Wind: Calm, 10-min avg: Calm, gust: 2 mph
  • Barometer: 30.14 in Steady
  • Visibility: 10 miles
  • Rain Today: 0.00 in
  •   

Regional Weather Roundup
for Boston / Norton, MA

        
000
ASUS41 KBOX 011804
RWRBOX

REGIONAL WEATHER ROUNDUP
NATIONAL WEATHER SERVICE BOSTON/NORTON MA
200 PM EDT SAT AUG 01 2020

NOTE:  "FAIR" INDICATES FEW OR NO CLOUDS BELOW 12,000 FEET WITH NO 
SIGNIFICANT WEATHER AND/OR OBSTRUCTIONS TO VISIBILITY.

MAZALL-011900-
EASTERN MASSACHUSETTS
  
CITY           SKY/WX    TMP DP  RH WIND       PRES   REMARKS
BOSTON         MOSUNNY   80  65  59 E12       29.94S                  
6HR MIN TEMP:  74; 6HR MAX TEMP:  81;                                

BEVERLY        MOSUNNY   84  63  49 E13       29.93F                  
LAWRENCE       MOSUNNY   85  63  47 CALM      29.95S                  
BEDFORD        SUNNY     88  60  38 VRB3      29.92F                  
BLUE HILL      NOT AVBL                                               
NORWOOD        PTSUNNY   90  63  40 VRB3      29.93S HX  91           
MARSHFIELD     SUNNY     79  68  69 NE9       29.94S                  
PLYMOUTH       SUNNY     82  64  54 NE12      29.95R                  
TAUNTON        SUNNY     90  60  36 W5        29.92S                  
NEW BEDFORD    PTSUNNY   86  67  52 SW8       29.92S                  
$$

MAZALL-011900-
CAPE COD AND THE ISLANDS
  
CITY           SKY/WX    TMP DP  RH WIND       PRES   REMARKS
FALMOUTH       MOSUNNY   82  64  54 SE8       29.94S                  
HYANNIS        SUNNY     85  64  49 VRB5      29.93S                  
CHATHAM        SUNNY     82  67  60 SE8       29.96R                  
PROVINCETOWN   SUNNY     78  70  76 N8        29.96S                  
NANTUCKET      SUNNY     77  69  76 SW8       29.95S                  
MARTHAS VNYRD  SUNNY     82  69  64 S9        29.94S                  
$$
 
MAZALL-011900-
CENTRAL AND WESTERN MASSACHUSETTS
  
CITY           SKY/WX    TMP DP  RH WIND       PRES   REMARKS
WORCESTER      SUNNY     86  57  37 W7        29.98S                  
6HR MIN TEMP:  74; 6HR MAX TEMP:  86;                                

FITCHBURG      MOSUNNY   87  55  33 VRB5      29.95S                  
ORANGE         SUNNY     88  54  31 VRB5      29.96F                  
SPRINGFIELD    MOSUNNY   86  60  41 N3        29.93F                  
WESTFIELD      PTSUNNY   86  60  41 CALM      29.93F                  
NORTH ADAMS    SUNNY     85  58  39 W5        29.96F                  
PITTSFIELD     MOSUNNY   85  58  39 VRB6      29.98F                  
$$
 
RIZALL-011900-
RHODE ISLAND
  
CITY           SKY/WX    TMP DP  RH WIND       PRES   REMARKS
PROVIDENCE     MOSUNNY   89  61  38 VRB6      29.93F                  
6HR MIN TEMP:  75; 6HR MAX TEMP:  91;                                

NEWPORT        SUNNY     85  67  54 VRB7      29.94S                  
BLOCK ISLAND   SUNNY     82  70  66 S12       29.96S                  
SMITHFIELD     MOSUNNY   86  61  42 N6        29.95F                  
WESTERLY       SUNNY     86  64  47 S9        29.94F                  
$$
 
CTZALL-011900-
CONNECTICUT
  
CITY           SKY/WX    TMP DP  RH WIND       PRES   REMARKS
BRADLEY INTL   MOSUNNY   90  58  33 VRB3      29.93F                  
6HR MIN TEMP:  72; 6HR MAX TEMP:  90;                                

HARTFORD       MOSUNNY   89  59  36 NE5       29.92F                  
BRIDGEPORT     SUNNY     84  65  52 S8        29.95F                  
DANBURY        MOSUNNY   85  61  44 VRB7      29.97S                  
GROTON         MOSUNNY   83  68  60 SW10      29.93F                  
NEW HAVEN      MOSUNNY   86  68  54 S10       29.95F                  
CHESTER        NOT AVBL                                               
MERIDEN        MOSUNNY   90  56  31 MISG      29.93F                  
WILLIMANTIC    SUNNY     89  59  36 NW8       29.94F                  
OXFORD         MOSUNNY   86  61  42 W6        29.98F                  
$$

MEZ002-015-021-024-NHZ003-005-008-011-012-014-VTZ005-008-011900-
NORTHERN NEW ENGLAND
  
CITY           SKY/WX    TMP DP  RH WIND       PRES   REMARKS
PORTLAND ME    MOSUNNY   88  57  35 NW9       29.93S                  
6HR MIN TEMP:  75; 6HR MAX TEMP:  89;                                

BANGOR ME      MOSUNNY   81  60  48 NW7       29.91S                  
CONCORD NH     SUNNY     88  58  36 MISG      29.94F                  
MANCHESTER NH  MOSUNNY   88  57  34 VRB6      29.92F                  
NASHUA NH      PTSUNNY   87  60  40 W8        29.94F                  
PORTSMOUTH NH  MOSUNNY   83  58  42 SE10      29.92S                  
JAFFREY NH     SUNNY     83  58  42 W5        29.98F                  
KEENE NH       SUNNY     84  59  42 VRB5      29.95F                  
BURLINGTON VT  MOSUNNY   85  59  41 NE7       29.95F                  
MT. WASHINGTON NOT AVBL                                               
$$

NYZ052-076-011900-
EASTERN NEW YORK
  
CITY           SKY/WX    TMP DP  RH WIND       PRES   REMARKS
ALBANY         MOSUNNY   82  61  48 N7        29.96F                  
6HR MIN TEMP:  68; 6HR MAX TEMP:  83;                                

NEW YORK CITY  PTSUNNY   86  62  44 S12       29.94S                  
6HR MIN TEMP:  77; 6HR MAX TEMP:  88;                                

$$
 
ANZALL-011900-
MARINE OBSERVATIONS
  
STATION/POSITION TIME  TEMP    WIND        PRES    VSBY  WAVE
                       AIR SEA DIR/SP/G                  HT/PER
                 (UTC) (F)     (DEG/KT/KT) (MB)    (MI)  (FT/S)
BOSTON BUOY      1750   74 75   70/  6/  8 1012.8S         1/ 8
BUZZARDS BAY     1700          190/  9/ 10 1015.1F
NANTUCKET SOUND  1740      78  180/  8/ 10 1013.2R
MASS BAY-STELLWA NOT AVBL
ISLE OF SHOALS   1700   72     100/  7/  7 1013.5F
S OF BLOCK IS    1726      76                N/A           3/13
$$

......................KEY.........................
  SKY/WX - SKY CONDITION/PRESENT WEATHER
  TMP    - TEMPERATURE IN FAHRENHEIT
  DWPT   - DEWPOINT IN FAHRENHEIT
  RH     - RELATIVE HUMIDITY IN PERCENT
  WIND   - DIRECTION AND SPEED IN MPH
  PRES   - MEAN SEA LEVEL PRESSURE IN INCHES OF HG
  WCI    - WIND CHILL INDEX
  VSB    - VISIBILITY IN MILES
  HX     - HEAT INDEX
  TC     - TEMPERATURE IN CELSIUS
  VRB    - VARIABLE WIND DIRECTION
  N/A    - NOT AVAILABLE
  
      

Other recent Regional Weather Roundups

Fri Aug 7, 11:04am

Fri Aug 7, 10:04am

Fri Aug 7, 9:04am

Fri Aug 7, 8:04am

Fri Aug 7, 7:04am

Fri Aug 7, 6:04am

Fri Aug 7, 5:04am

Fri Aug 7, 4:04am

Fri Aug 7, 3:04am

Fri Aug 7, 2:04am

Fri Aug 7, 1:05am

Fri Aug 7, 12:04am

Thu Aug 6, 11:04pm

Thu Aug 6, 10:04pm

Thu Aug 6, 9:04pm

Thu Aug 6, 8:04pm

Thu Aug 6, 7:04pm

Thu Aug 6, 6:04pm

Thu Aug 6, 5:04pm

Thu Aug 6, 4:05pm

Thu Aug 6, 3:04pm

Thu Aug 6, 2:05pm

Thu Aug 6, 1:04pm

Thu Aug 6, 12:04pm

Thu Aug 6, 11:04am

Thu Aug 6, 10:04am

Thu Aug 6, 9:04am

Thu Aug 6, 8:04am

Thu Aug 6, 7:04am

Thu Aug 6, 6:04am

Thu Aug 6, 5:04am

Thu Aug 6, 4:04am

Thu Aug 6, 3:04am

Thu Aug 6, 2:05am

Thu Aug 6, 1:04am

Thu Aug 6, 12:04am

Wed Aug 5, 11:04pm

Wed Aug 5, 10:04pm

Wed Aug 5, 9:04pm

Wed Aug 5, 8:05pm

Wed Aug 5, 7:04pm

Wed Aug 5, 6:04pm

Wed Aug 5, 5:04pm

Wed Aug 5, 4:05pm

Wed Aug 5, 3:04pm

Wed Aug 5, 2:04pm

Wed Aug 5, 1:04pm

Wed Aug 5, 12:04pm

Wed Aug 5, 11:04am

Wed Aug 5, 10:04am

Wed Aug 5, 9:04am

Wed Aug 5, 8:04am

Wed Aug 5, 7:04am

Wed Aug 5, 6:04am

Wed Aug 5, 5:04am

Wed Aug 5, 4:04am

Wed Aug 5, 3:04am

Wed Aug 5, 2:05am

Wed Aug 5, 1:04am

Wed Aug 5, 12:05am

Tue Aug 4, 11:05pm

Tue Aug 4, 10:05pm

Tue Aug 4, 9:04pm

Tue Aug 4, 8:04pm

Tue Aug 4, 7:05pm

Tue Aug 4, 6:05pm

Tue Aug 4, 5:05pm

Tue Aug 4, 4:05pm

Tue Aug 4, 3:04pm

Tue Aug 4, 2:05pm

Tue Aug 4, 1:04pm

Tue Aug 4, 12:05pm

Tue Aug 4, 11:04am

Tue Aug 4, 10:04am

Tue Aug 4, 9:04am

Tue Aug 4, 8:04am

Tue Aug 4, 7:04am

Tue Aug 4, 6:04am

Tue Aug 4, 5:04am

Tue Aug 4, 4:04am

Tue Aug 4, 3:04am

Tue Aug 4, 2:04am

Tue Aug 4, 1:04am

Tue Aug 4, 12:04am

Mon Aug 3, 11:04pm

Mon Aug 3, 10:04pm

Mon Aug 3, 9:04pm

Mon Aug 3, 8:05pm

Mon Aug 3, 7:04pm

Mon Aug 3, 6:04pm

Mon Aug 3, 5:04pm

Mon Aug 3, 4:05pm

Mon Aug 3, 3:04pm

Mon Aug 3, 2:04pm

Mon Aug 3, 1:04pm

Mon Aug 3, 12:05pm

Mon Aug 3, 11:04am

Mon Aug 3, 10:04am

Mon Aug 3, 9:05am

Mon Aug 3, 8:04am

Mon Aug 3, 7:04am

Mon Aug 3, 6:04am

Mon Aug 3, 5:04am

Mon Aug 3, 4:04am

Mon Aug 3, 3:04am

Mon Aug 3, 2:04am

Mon Aug 3, 1:04am

Mon Aug 3, 12:05am

Sun Aug 2, 11:04pm

Sun Aug 2, 10:04pm

Sun Aug 2, 9:04pm

Sun Aug 2, 8:04pm

Sun Aug 2, 7:04pm

Sun Aug 2, 6:04pm

Sun Aug 2, 5:04pm

Sun Aug 2, 4:05pm

Sun Aug 2, 3:04pm

Sun Aug 2, 2:05pm

Sun Aug 2, 1:04pm

Sun Aug 2, 12:04pm

Sun Aug 2, 11:04am

Sun Aug 2, 10:04am

Sun Aug 2, 9:05am

Sun Aug 2, 8:05am

Sun Aug 2, 7:04am

Sun Aug 2, 6:04am

Sun Aug 2, 5:04am

Sun Aug 2, 4:05am

Sun Aug 2, 3:04am

Sun Aug 2, 2:04am

Sun Aug 2, 1:04am

Sun Aug 2, 12:05am

Sat Aug 1, 11:04pm

Sat Aug 1, 10:04pm

Sat Aug 1, 9:04pm

Sat Aug 1, 8:05pm

Sat Aug 1, 7:04pm

Sat Aug 1, 6:04pm

Sat Aug 1, 5:05pm

Sat Aug 1, 4:05pm

Sat Aug 1, 3:04pm

Sat Aug 1, 1:04pm

Sat Aug 1, 12:04pm

Sat Aug 1, 11:05am

Sat Aug 1, 10:05am

Sat Aug 1, 9:04am

Sat Aug 1, 8:04am

Sat Aug 1, 7:04am

Sat Aug 1, 6:04am

Sat Aug 1, 5:04am

Sat Aug 1, 4:05am

Sat Aug 1, 3:04am

Sat Aug 1, 2:04am

Sat Aug 1, 1:04am

Sat Aug 1, 12:05am

Fri Jul 31, 11:05pm

Fri Jul 31, 10:04pm

Fri Jul 31, 9:04pm

Fri Jul 31, 8:05pm

Fri Jul 31, 7:05pm

Fri Jul 31, 6:04pm

Fri Jul 31, 5:04pm

Fri Jul 31, 4:05pm

Fri Jul 31, 3:04pm

Fri Jul 31, 2:05pm

Fri Jul 31, 1:04pm

Fri Jul 31, 12:04pm

Meta data:

ID: 7982d60b-348d-484d-8902-0e31ad29374e
Link: https://api.weather.gov/products/7982d60b-348d-484d-8902-0e31ad29374e